sat.trackr.live / text

‹ back to catalog

STARLINK-33788

NORAD 63589 · 2025-076W

PAYLOAD ACTIVE UNKNOWN

§ Identity

Operator
Country
US
Launch date
2025-04-14
Launch site
AFETR
Launch vehicle
Mass (kg)
RCS (m²)

Purposes: comms

External: N2YO · Heavens-Above · Gunter

§ Orbital elements

Epoch: 2026-05-24T15:24:45.185760Z

Period
94.27 min
Inclination
42.9995°
Eccentricity
0.0001110
Mean motion
15.27567665 rev/d
Perigee alt
482.3 km
Apogee alt
483.8 km
Semi-major
6,861.2 km
B*
6.9201e-4
RAAN
252.9920°
Arg perigee
281.4425°
Mean anomaly
78.6302°
Rev number
6,344

§ Raw data

STARLINK-337881 63589U 25076W   26144.64218965  .00018822  00000+0  69201-3 0  99902 63589  42.9995 252.9920 0001110 281.4425  78.6302 15.27567665 63442

JSON: /api/v1/satellites/63589 · /tle

For live sub-satellite position, see the globe view (requires WebGL).

§ Visibility from observer

Set your observer location to see the next 7 days of passes ≥ 10°. The values pass through the URL so the page stays shareable.

No JS? Fill the form by hand. The geolocation button needs JavaScript.